GFSGBSN_sfc_temp_231.txt.gz
Temp
63 63 63 63 62 62 61 62 62 61 61 61 61 61 61 61 62 62 62 62 61 61 61 63 64 65 85 94 97 105 90 90 105 109 106 104 102 101 92 98 99 94 95 97 98 97 97
63 62 62 62 62 61 61 61 62 61 61 61 61 61 61 61 61 61 61 61 61 61 61 63 65 64 88 87 109 109 108 108 109 108 107 107 102 105 100 98 97 97 96 96 98 97 97
62 62 62 62 61 61 61 61 61 61 61 61 61 61 61 61 61 61 61 60 60 60 62 64 66 81 92 95 109 110 109 109 110 109 105 107 108 103 103 98 102 99 93 96 96 96 96
62 62 62 62 62 61 61 61 61 61 61 61 61 61 61 60 61 60 60 59 59 61 62 64 66 87 89 109 112 107 110 108 111 112 109 110 110 106 103 103 99 93 94 84 93 95 96
62 62 62 62 61 61 61 61 61 61 60 60 61 60 60 60 60 59 58 58 60 62 64 67 82 91 91 94 101 109 111 105 109 109 109 108 107 103 101 95 91 92 78 85 87 95 94
62 62 62 62 61 61 60 60 60 60 60 60 60 60 60 60 59 58 58 58 65 65 72 89 92 87 96 96 105 108 112 109 104 105 101 101 101 96 97 94 75 82 85 85 85 91 92
62 62 61 61 61 61 60 60 60 60 60 60 60 59 59 59 59 57 65 83 84 84 89 92 94 93 97 103 105 104 109 105 104 100 91 98 92 88 92 92 92 90 87 84 89 93 90
61 61 61 61 60 60 60 60 60 60 60 60 59 59 59 59 58 57 67 88 93 94 88 95 96 97 99 103 94 101 109 97 95 89 95 90 86 93 95 93 90 90 86 86 91 93 91
61 60 60 60 60 60 60 60 59 59 59 59 58 58 58 58 58 62 86 94 100 99 88 93 97 96 98 101 96 97 103 99 94 90 92 87 93 98 92 91 88 90 88 85 86 91 94
60 60 60 60 60 59 59 59 59 59 58 58 58 58 58 57 58 92 89 99 100 98 82 85 90 95 98 100 94 106 106 100 94 89 92 91 97 91 90 88 92 84 93 89 86 85 80
60 60 59 59 59 59 59 59 59 58 58 58 58 57 57 52 75 89 96 102 101 95 68 89 93 106 102 96 98 97 107 101 91 91 92 88 91 88 87 90 95 87 93 90 89 86 87
60 60 60 59 59 59 59 58 58 58 58 58 57 57 57 65 78 94 99 99 96 76 68 85 93 90 91 95 96 98 97 103 101 93 93 92 99 95 94 97 94 95 91 90 90 88 77
60 60 60 59 59 58 58 58 58 58 57 56 55 54 58 80 92 100 98 92 77 73 90 84 86 91 91 90 91 92 89 89 86 80 81 88 89 95 98 90 95 93 88 77 74 75 75
60 59 59 59 58 58 58 58 58 57 57 55 53 54 62 80 95 94 93 83 69 85 86 94 92 92 87 92 91 91 88 86 93 92 87 81 78 91 96 92 89 90 89 79 65 71 64
59 59 59 59 58 58 58 58 58 57 56 54 54 74 86 92 88 92 87 75 80 85 92 91 92 86 86 90 91 90 89 89 93 94 84 84 82 97 97 98 95 89 83 94 84 80 70
59 59 59 58 58 58 58 58 58 57 56 54 78 89 91 96 96 90 82 71 85 91 93 95 84 89 83 86 85 87 87 93 91 96 99 90 80 93 94 97 96 93 96 84 85 64 66
59 59 59 58 58 58 58 58 57 56 55 54 76 87 92 97 94 86 78 84 87 93 93 91 89 87 89 87 88 87 87 92 95 94 97 95 82 84 91 88 87 88 86 89 87 77 71
58 58 59 58 58 58 59 58 57 55 53 57 88 84 94 97 80 86 84 87 68 92 95 93 93 93 91 90 88 88 87 91 96 96 88 94 88 80 85 94 95 93 89 89 80 75 80
58 58 58 58 58 58 58 58 57 55 54 73 85 87 95 94 78 84 89 87 90 90 92 91 90 96 96 91 84 90 90 93 94 94 89 94 86 57 73 88 91 88 90 90 90 89 77
58 58 58 59 58 58 58 58 56 55 54 67 87 81 86 88 90 86 86 85 86 92 91 94 93 95 92 90 93 87 88 90 93 94 73 85 90 79 56 58 72 82 85 87 87 80 80
58 58 58 58 59 58 58 58 57 55 55 68 88 89 91 80 84 88 88 86 84 85 92 94 89 92 90 85 87 86 91 89 91 76 87 92 82 85 76 71 80 85 84 85 82 84 78
58 58 58 58 58 58 58 58 57 56 54 75 81 83 92 89 90 87 73 83 84 87 89 89 89 92 93 85 87 86 90 90 87 90 90 94 80 83 77 86 86 81 85 85 85 84 83
58 58 58 58 58 58 58 58 57 56 59 82 86 90 85 75 88 85 86 86 87 87 89 93 94 93 89 90 96 98 100 98 96 90 89 88 86 80 74 84 82 75 82 84 84 86 85
58 58 58 58 58 58 58 58 58 57 56 73 81 80 81 83 87 87 87 87 86 87 86 90 94 91 90 98 100 101 100 97 94 93 96 85 82 81 75 78 65 83 87 85 82 85 85
57 57 58 58 58 58 58 58 58 57 56 68 82 79 81 80 89 85 86 87 87 86 87 89 89 94 99 95 89 82 85 84 87 90 91 93 84 76 72 73 78 83 84 81 79 80 85
57 57 57 57 58 58 58 58 58 58 56 71 83 81 80 79 84 85 85 87 87 87 86 87 92 99 97 93 86 74 73 78 78 81 91 90 87 79 75 67 64 79 85 90 87 74 86
57 57 57 57 57 58 58 58 58 58 57 63 80 81 79 78 89 85 84 86 90 90 89 88 89 90 96 87 81 78 77 82 73 73 75 78 77 73 75 71 77 85 87 89 69 73 86
57 57 57 57 57 57 57 58 58 58 57 62 79 81 76 79 86 86 88 85 89 89 86 88 87 89 90 80 81 81 79 80 79 80 77 74 73 74 76 69 67 86 84 76 79 85 86
56 56 56 56 57 57 57 58 58 57 57 57 77 84 82 75 84 89 90 90 88 87 87 92 87 85 89 84 85 84 79 82 77 71 83 73 80 75 75 72 78 84 83 87 88 83 83

GFSGBSN_sfc_temp_234.txt.gz
Temp
63 63 63 63 62 62 61 62 62 62 62 62 61 61 62 62 62 62 62 62 61 61 62 63 64 65 82 90 95 105 88 90 104 106 104 104 101 98 92 96 99 93 94 97 98 98 96
63 63 63 62 62 62 62 62 62 62 61 61 61 61 61 61 61 62 61 61 61 61 62 63 65 64 84 84 111 112 110 109 108 108 106 107 103 104 97 98 94 98 96 97 98 97 97
63 63 62 62 62 62 61 61 61 61 61 61 61 61 61 61 61 61 61 61 61 61 62 63 65 78 88 91 111 112 110 108 111 109 104 108 108 103 102 96 102 99 91 95 96 97 90
63 62 62 62 62 61 61 61 61 61 61 61 61 61 61 61 61 61 60 59 60 61 63 64 66 82 85 108 111 109 110 108 111 112 109 110 110 104 101 103 99 93 94 82 93 95 89
62 62 62 62 61 61 61 61 61 61 61 61 60 61 61 61 60 59 59 59 60 63 64 66 78 85 87 97 102 108 110 104 108 110 110 110 106 100 101 93 89 91 79 82 86 96 94
62 62 62 61 61 61 61 61 61 60 61 61 60 60 60 60 59 58 58 58 68 63 72 85 89 85 94 95 104 106 110 108 104 104 102 100 99 93 95 91 76 81 80 86 83 90 93
62 61 61 61 61 61 61 60 60 60 60 60 60 59 60 59 59 57 63 81 81 80 85 88 91 91 98 105 110 104 108 105 104 99 90 96 89 85 81 92 90 89 87 85 89 94 90
61 61 61 60 60 60 60 60 60 60 60 60 59 59 59 59 58 58 64 83 95 97 85 91 95 98 102 104 94 100 109 96 94 87 93 89 85 89 93 94 91 89 86 86 90 94 91
61 60 60 60 60 60 60 59 59 59 59 59 59 58 58 58 58 60 81 90 104 102 86 92 96 96 98 101 95 96 103 98 92 88 90 84 89 97 93 90 88 88 87 85 85 91 93
61 60 60 60 59 59 59 59 59 59 59 59 58 58 58 57 57 88 86 97 101 103 77 86 90 96 100 100 92 106 106 99 94 88 91 90 95 92 90 88 91 83 92 90 87 84 77
60 60 60 60 60 59 59 59 59 59 58 58 58 57 57 53 68 88 98 105 104 98 63 90 92 107 102 94 98 98 107 100 90 91 92 87 90 90 87 89 93 86 94 91 89 85 84
60 60 60 60 59 59 59 59 59 58 58 58 57 57 57 66 72 87 101 103 97 74 65 85 93 90 91 94 96 99 98 102 101 93 93 92 100 96 92 95 96 96 90 89 89 85 73
60 60 59 59 59 59 59 59 58 58 57 57 55 54 57 75 89 102 102 93 74 67 91 84 85 91 90 88 92 92 90 88 85 79 81 88 90 96 98 90 95 92 86 73 71 72 71
60 59 59 59 59 59 59 59 58 58 57 55 54 54 60 77 94 98 94 81 65 82 86 94 91 90 85 91 90 90 87 84 91 90 85 79 76 89 96 91 88 88 87 76 63 65 67
59 59 59 59 59 58 58 58 58 57 56 55 53 72 80 89 86 93 85 71 75 84 94 90 90 84 85 91 91 88 87 87 91 93 82 82 81 95 96 97 94 87 82 92 82 83 76
59 59 59 59 58 58 59 58 58 57 56 55 71 87 92 100 96 90 79 68 84 93 95 95 83 88 82 87 86 87 86 93 92 96 98 89 79 92 95 98 97 91 95 81 82 67 63
59 59 59 59 59 59 59 58 58 57 55 54 74 83 96 101 98 85 73 79 88 97 96 92 89 87 88 87 88 87 87 93 96 95 97 94 88 82 90 87 85 87 84 86 87 82 68
59 59 58 58 59 59 59 58 57 55 53 56 84 79 97 100 79 83 79 85 79 93 97 93 94 94 90 91 88 88 87 91 99 97 89 94 86 77 79 90 96 94 88 89 78 70 77
59 58 59 58 58 58 58 57 56 55 54 67 81 88 98 96 75 80 86 88 91 91 93 92 91 95 97 91 84 90 86 97 98 94 88 92 83 64 63 78 85 80 83 91 89 86 73
59 59 59 59 59 59 58 57 56 55 54 63 81 81 86 89 89 84 83 85 86 95 92 95 93 96 93 90 93 76 74 93 97 95 75 88 85 73 56 59 67 69 79 85 86 77 77
59 58 58 59 59 59 58 57 56 55 55 64 84 83 90 78 82 84 88 88 86 86 93 95 91 92 91 82 88 87 87 91 94 78 90 91 77 74 76 71 71 70 77 81 82 83 76
58 58 58 59 59 59 58 58 57 56 54 74 80 80 86 88 89 86 74 83 86 89 90 88 88 92 88 68 73 69 84 88 87 91 90 94 80 75 73 76 75 74 83 85 85 84 83
58 58 58 58 59 59 58 58 57 55 58 83 86 88 84 76 88 86 85 86 87 83 94 95 91 82 75 74 81 78 79 74 94 90 88 87 84 77 72 80 77 72 80 84 85 87 85
58 58 58 58 58 58 58 58 58 57 56 68 82 82 79 77 86 86 89 91 88 72 82 85 80 71 84 78 85 84 85 87 95 94 96 86 82 80 74 77 64 82 90 88 84 85 88
58 58 58 58 58 58 58 59 58 57 56 66 78 79 78 75 83 88 86 88 89 89 88 90 83 86 96 84 82 71 82 85 87 91 91 92 84 76 70 71 77 82 86 83 81 80 88
58 58 58 58 58 58 58 59 59 58 56 66 73 83 78 75 82 88 88 89 86 86 88 90 95 100 99 92 86 74 73 78 77 82 91 90 87 78 73 66 62 78 87 91 88 73 88
58 57 57 57 57 58 58 58 59 58 57 60 75 84 79 75 88 87 84 83 90 89 88 90 90 91 97 86 81 78 77 83 74 74 76 78 78 73 73 70 76 86 89 90 70 72 87
58 57 57 57 57 57 58 58 58 58 57 60 74 85 78 75 83 89 90 85 86 86 75 87 88 89 88 81 80 80 79 82 80 81 77 74 72 72 74 69 66 87 86 75 79 86 87
57 57 57 57 57 57 57 58 58 57 57 57 73 84 84 75 81 88 91 94 91 90 87 90 88 88 87 84 84 84 79 83 79 72 85 73 80 74 76 72 80 85 84 88 90 84 84

GFSGBSN_sfc_temp_237.txt.gz
Temp
63 63 63 62 62 62 62 62 62 62 61 61 61 61 61 61 62 62 62 62 61 61 62 63 64 65 68 74 82 100 86 87 93 96 94 93 91 86 82 88 90 86 89 93 94 92 87
63 63 62 62 62 61 61 62 62 61 61 61 61 61 61 61 61 61 61 61 61 61 62 63 64 64 67 70 98 102 96 98 98 99 96 97 93 96 89 87 86 91 92 92 91 88 90
63 63 62 62 62 61 61 61 61 61 61 61 61 61 61 61 61 61 61 60 60 61 62 63 65 72 73 78 98 100 99 97 100 100 94 99 98 90 90 88 95 93 85 88 89 85 81
62 62 62 62 62 61 61 61 61 61 61 61 61 61 61 61 61 60 60 59 60 61 63 64 67 68 68 94 96 97 100 99 102 101 99 100 99 92 86 94 91 86 84 73 84 85 84
62 62 61 61 61 61 61 61 60 60 61 61 60 60 61 60 60 59 58 59 60 63 64 66 63 64 71 95 90 96 96 95 97 98 98 107 94 85 88 79 74 80 70 75 79 85 83
62 61 61 61 61 60 60 60 60 60 61 60 60 60 59 60 59 58 58 58 62 61 69 78 81 69 80 85 92 96 97 99 95 94 94 92 84 76 76 76 64 73 74 80 75 82 82
61 61 61 60 60 60 60 60 60 60 60 60 60 59 60 59 59 57 58 66 65 63 69 73 74 78 89 92 97 92 97 95 94 88 77 84 72 70 75 80 85 82 79 78 81 87 82
61 61 60 60 60 60 60 60 59 60 60 60 60 59 59 59 58 58 55 66 80 84 73 78 85 86 92 94 87 93 98 85 84 76 82 76 71 82 87 87 84 80 77 78 83 87 81
61 60 60 60 60 59 59 59 59 60 60 60 59 59 58 58 57 54 64 74 87 88 71 82 84 84 87 89 87 86 91 89 82 77 79 72 80 91 88 84 80 76 75 78 77 83 83
60 60 60 60 59 59 59 59 59 59 59 59 59 58 58 57 54 71 74 81 83 85 61 75 79 85 90 90 83 97 96 90 84 78 81 78 87 87 84 82 79 67 84 86 83 73 62
60 60 60 59 59 59 59 59 59 59 58 58 58 57 57 57 53 69 85 91 91 82 50 82 81 96 91 83 85 88 99 90 80 81 78 76 83 81 81 82 84 78 88 83 82 71 64
60 60 60 59 59 59 59 59 59 58 58 58 57 57 56 59 57 68 81 85 83 60 54 78 86 82 81 83 86 91 90 91 91 82 83 81 90 84 83 88 87 91 80 77 74 66 55
60 60 59 59 59 58 58 58 58 58 58 57 56 54 54 65 74 83 89 81 58 54 81 77 77 82 79 78 82 83 81 77 70 62 65 77 81 84 87 75 84 79 66 55 53 53 54
60 59 59 59 58 58 58 58 58 58 57 56 54 53 55 64 78 77 81 66 53 73 75 85 82 81 76 80 79 81 76 71 80 76 67 64 64 80 86 79 74 74 69 56 50 55 59
59 59 59 59 58 58 58 58 58 57 57 55 52 61 65 72 68 73 68 57 62 73 85 84 81 73 74 81 80 77 75 74 80 81 67 64 69 86 88 86 79 73 64 75 67 63 61
59 59 59 58 58 58 58 58 57 57 56 54 55 72 76 86 81 75 64 57 70 83 85 84 73 76 70 76 75 74 74 82 82 87 81 74 65 78 87 86 85 73 77 64 61 51 49
59 59 58 58 58 58 58 58 57 56 55 53 62 69 86 91 86 69 61 65 76 85 87 83 78 76 77 76 78 76 76 84 89 87 85 72 71 74 80 76 69 69 67 66 65 61 57
59 58 58 58 58 58 58 58 57 55 54 55 73 67 91 92 68 68 66 73 70 82 88 86 84 82 80 81 77 76 78 82 92 87 77 75 67 61 67 78 81 74 67 66 58 60 60
59 58 58 58 58 58 58 57 56 55 54 53 67 76 90 89 63 67 73 78 82 81 83 85 84 86 84 81 72 78 79 91 91 83 71 76 64 52 58 71 74 67 69 72 72 64 58
59 59 59 58 58 58 58 57 56 55 54 54 65 68 75 79 79 74 72 74 77 89 87 88 84 86 82 78 75 74 78 89 92 85 75 78 67 62 53 59 62 66 73 72 66 57 62
59 59 58 58 58 58 58 57 57 55 55 56 69 66 76 67 72 75 76 76 76 77 87 86 81 84 73 65 75 69 78 80 87 77 79 75 61 64 66 71 71 69 71 71 67 68 59
59 58 58 58 58 58 58 58 57 56 54 61 66 63 67 71 76 76 71 73 77 79 80 78 76 70 73 68 67 63 71 67 67 76 72 76 62 62 60 70 70 69 73 74 73 75 68
59 58 58 58 58 58 58 58 57 55 57 66 74 72 69 66 75 74 75 77 77 76 76 79 78 68 63 71 75 73 72 67 71 66 64 71 66 61 56 66 66 59 70 72 73 75 73
58 58 58 58 58 58 58 58 58 57 55 58 66 69 67 66 73 74 80 85 82 72 71 75 74 73 78 79 76 80 76 73 71 76 80 73 66 64 57 61 50 67 80 79 75 79 77
59 58 58 58 58 58 58 58 58 57 56 55 65 65 67 61 70 77 80 74 73 69 74 68 69 81 83 76 66 64 66 68 71 78 78 76 66 59 55 53 64 71 76 74 70 68 78
59 58 58 58 58 58 58 58 58 58 56 58 62 69 68 62 70 77 78 77 70 65 67 67 72 81 82 73 68 57 57 64 64 66 76 73 70 63 59 52 51 66 78 82 80 59 77
59 58 58 58 58 58 58 58 58 58 57 55 61 69 68 62 69 74 74 73 79 72 67 64 68 77 82 69 66 65 62 66 63 61 64 62 62 60 57 55 62 71 79 81 58 58 76
58 58 57 57 57 57 58 58 58 58 57 55 61 67 68 64 69 77 80 74 76 73 64 71 75 77 71 67 67 65 66 66 68 68 65 61 58 57 58 53 51 75 75 64 66 71 75
58 58 57 57 57 57 57 57 58 57 57 57 61 71 74 66 69 78 80 83 83 83 74 67 65 73 73 67 66 68 65 66 64 59 70 61 66 60 61 59 69 72 72 75 75 71 71

GFSGBSN_sfc_temp_240.txt.gz
Temp
63 63 63 63 62 62 62 62 62 61 61 62 62 62 61 61 61 61 62 61 61 61 61 62 64 64 66 69 77 95 86 86 90 90 89 86 82 78 78 81 84 82 85 88 88 88 86
63 63 62 62 62 62 61 61 61 61 61 62 61 61 61 61 61 61 61 61 60 61 62 63 64 65 64 66 91 95 93 93 92 90 90 87 86 89 85 86 81 86 87 87 87 86 86
62 62 62 62 61 61 61 61 61 61 61 61 61 61 61 61 61 61 61 60 60 61 62 63 65 70 65 75 90 90 89 87 91 92 87 93 90 85 81 80 89 89 79 82 83 83 82
62 61 61 61 61 61 61 61 61 60 61 61 61 60 60 61 61 60 59 59 59 61 63 64 66 63 65 84 85 88 87 91 95 92 91 94 90 84 82 84 87 83 79 68 79 81 81
61 61 61 61 60 60 60 60 60 60 61 61 61 60 60 60 59 59 58 59 60 63 65 65 58 59 65 86 84 88 87 88 90 92 93 102 88 79 82 72 69 75 66 71 74 82 80
61 61 61 60 60 60 59 60 60 60 60 60 60 60 59 60 59 58 57 58 60 61 67 73 77 64 72 80 84 89 88 92 88 88 88 85 77 71 70 66 59 67 68 74 70 77 79
61 61 60 60 60 60 59 59 59 59 60 60 60 59 59 59 59 56 53 59 64 63 61 68 68 72 80 83 88 85 88 87 86 80 71 78 69 64 70 72 74 77 74 72 77 79 75
61 61 60 60 60 59 59 59 59 59 60 60 60 59 59 59 58 56 51 58 68 72 63 74 77 77 83 81 79 85 89 81 77 71 72 70 64 75 81 81 82 76 73 72 77 80 75
60 60 60 60 59 59 59 59 59 59 59 59 58 59 58 58 57 51 52 64 73 77 60 73 74 75 78 80 78 80 86 81 75 70 71 66 75 84 81 78 72 69 69 74 74 78 76
60 60 59 59 59 59 59 59 59 59 59 58 58 58 57 57 53 57 62 69 68 75 54 64 71 79 82 82 77 89 88 84 77 74 73 70 80 82 80 78 75 64 81 82 78 69 61
60 60 59 59 59 59 58 58 58 58 58 58 58 57 57 56 50 56 73 71 69 71 45 75 70 85 81 77 76 81 90 82 76 76 73 72 75 75 77 79 79 75 81 80 77 67 60
60 59 59 59 59 59 58 58 58 58 58 58 57 57 56 53 51 55 64 68 71 56 48 70 77 74 73 72 78 80 83 82 83 75 72 75 82 80 80 86 82 84 76 70 65 60 54
60 59 59 59 59 59 58 58 58 58 57 57 56 55 54 59 59 66 69 69 54 47 71 70 68 70 69 70 73 75 75 71 67 59 60 72 75 78 81 72 78 75 62 52 53 52 53
60 59 59 58 58 58 58 58 58 57 56 55 54 53 53 57 56 62 67 60 43 64 64 71 71 69 68 71 71 73 70 66 71 66 59 58 61 71 79 76 72 67 64 54 48 47 54
59 59 59 58 58 58 58 58 57 57 56 55 52 49 49 57 58 60 63 48 52 63 73 72 70 63 63 70 70 71 68 67 71 69 63 57 62 78 81 79 78 70 61 66 58 51 52
59 59 59 58 58 58 58 57 57 57 56 54 50 52 61 68 67 64 57 48 58 72 76 73 61 65 62 66 68 63 65 73 76 78 74 68 60 72 81 81 77 68 72 60 54 48 45
59 59 59 58 58 58 58 58 57 56 55 53 51 59 69 71 69 60 50 52 66 74 78 71 67 64 67 68 70 65 69 77 83 79 74 67 63 69 75 66 65 66 61 59 58 54 50
59 59 58 58 58 58 58 57 56 55 54 53 53 57 72 76 59 53 51 60 65 70 78 73 74 72 68 71 67 69 71 76 85 85 72 69 61 57 65 72 75 71 63 57 53 54 58
59 59 59 58 58 58 58 57 56 54 54 50 53 59 74 72 53 52 58 69 71 73 75 72 73 77 77 71 66 72 74 84 84 78 74 71 57 53 59 63 68 66 64 61 58 53 56
59 59 59 59 58 58 58 57 56 55 54 50 53 54 62 64 60 56 55 63 66 80 75 78 75 72 69 67 65 70 74 82 85 81 73 72 57 59 54 57 60 62 67 64 60 52 51
59 59 59 59 59 59 58 57 56 55 54 51 54 55 60 56 60 60 59 65 67 67 74 72 68 71 69 59 63 66 67 71 77 71 74 68 60 57 59 64 64 63 67 70 63 60 55
59 59 59 59 59 59 58 57 57 55 54 52 56 55 57 57 59 60 58 62 69 74 71 67 66 70 69 63 62 65 66 62 61 70 66 64 58 57 58 66 65 63 68 68 72 71 63
59 59 59 59 59 59 58 58 57 55 53 50 57 61 61 54 58 57 61 66 70 74 74 74 71 65 67 68 71 67 65 64 65 63 63 62 59 55 50 63 63 59 65 67 69 69 66
59 59 59 59 59 58 58 58 57 56 54 47 50 56 56 54 57 61 67 73 72 70 68 71 70 65 70 73 71 66 70 72 73 64 67 62 57 53 50 52 50 64 71 75 71 72 70
59 59 58 58 58 58 58 59 58 57 55 50 50 53 54 51 59 64 68 71 67 64 65 68 70 70 67 70 64 59 61 67 73 75 71 69 57 53 52 49 57 65 71 70 68 63 70
59 59 58 58 58 58 58 59 58 57 56 48 50 55 53 52 57 65 65 67 59 57 65 68 73 70 73 63 62 54 54 60 61 65 71 63 60 58 50 50 47 60 70 75 71 56 69
59 59 58 58 58 58 58 58 59 58 56 51 49 55 54 52 57 63 60 62 66 59 57 60 64 67 69 62 60 56 56 63 60 56 58 59 57 56 52 50 57 67 72 72 57 56 67
59 58 58 57 57 57 58 58 58 58 57 53 50 55 56 51 56 65 68 64 65 64 58 61 62 65 63 58 56 61 59 61 60 61 59 59 56 53 51 48 49 70 71 62 62 64 68
58 58 58 57 57 57 57 58 58 57 57 55 47 57 60 53 58 66 70 73 73 73 61 59 60 60 64 59 59 58 59 58 58 57 63 58 61 59 57 56 64 66 67 68 71 68 66

GFSGBSN_sfc_temp_246.txt.gz
Temp
62 62 62 61 61 61 61 61 61 61 61 62 61 61 61 61 61 61 61 60 60 61 61 62 63 64 63 66 75 85 85 86 88 87 84 80 77 75 71 74 78 76 78 80 80 79 77
62 61 61 61 61 61 60 60 60 60 60 61 61 61 61 60 60 61 60 59 59 60 61 62 64 65 61 63 84 85 84 86 87 85 82 80 79 79 75 75 74 79 79 79 80 78 79
61 61 61 61 60 60 60 60 60 60 60 61 61 61 60 60 60 60 60 59 59 60 61 63 64 66 61 73 82 81 80 80 83 84 80 85 82 77 77 75 81 80 74 76 77 76 74
61 61 61 60 60 60 60 59 60 60 59 60 60 60 60 60 60 59 59 58 59 60 62 64 65 59 63 79 77 80 79 84 86 82 83 86 83 78 75 79 79 74 72 64 74 75 75
61 61 61 60 60 59 59 59 59 59 59 60 60 60 60 60 59 59 57 58 60 62 63 64 57 57 65 81 77 82 82 84 82 81 83 94 81 74 76 68 64 68 59 62 68 76 74
60 60 60 60 60 59 59 59 59 59 59 59 59 59 59 59 58 58 56 57 60 61 63 68 71 60 69 73 77 82 78 83 82 82 82 80 71 68 67 64 55 61 61 66 64 71 73
61 60 60 60 60 59 59 59 59 59 59 59 59 58 58 58 58 57 53 56 61 58 57 65 63 66 73 79 79 78 80 82 80 78 68 70 67 64 66 68 69 66 66 66 70 75 70
61 60 60 59 59 59 59 59 59 59 59 59 58 58 58 58 57 56 50 59 61 62 59 68 69 69 71 73 72 76 79 75 73 68 68 67 62 70 73 71 68 66 66 66 71 74 71
61 60 60 60 59 59 59 59 59 58 58 58 58 58 57 57 56 51 50 59 64 61 55 65 67 68 71 74 71 72 78 74 70 67 66 62 69 77 73 69 67 64 63 67 67 70 70
60 60 59 59 59 59 58 58 58 58 58 57 57 58 57 56 52 50 56 60 60 63 51 59 61 71 72 73 69 79 79 78 69 69 68 66 75 76 71 68 69 64 72 74 68 63 55
60 60 59 59 59 58 58 58 58 57 57 57 57 57 56 54 48 54 62 57 57 64 42 67 64 75 67 71 69 73 79 76 70 70 69 67 72 68 67 70 71 71 73 70 68 60 56
60 60 59 59 59 58 58 57 58 57 57 57 57 56 55 52 52 53 55 57 64 53 45 62 68 65 64 64 68 71 75 77 76 70 66 69 73 72 73 77 76 76 69 64 58 55 50
60 60 59 59 58 58 57 57 57 57 57 56 55 54 53 56 56 54 56 63 51 44 64 61 59 62 59 61 64 66 68 64 64 58 55 66 68 72 73 70 72 68 62 52 51 49 50
60 59 59 58 58 58 58 58 57 57 56 55 53 52 53 54 51 53 60 59 40 57 57 63 60 58 61 63 63 64 64 61 63 62 55 56 58 68 73 71 70 67 63 54 48 46 52
59 59 59 58 58 58 58 57 57 56 56 54 52 49 47 50 53 51 62 46 49 55 64 63 60 56 55 61 62 61 62 62 67 66 59 54 59 70 73 73 72 62 57 59 50 44 49
60 59 59 58 58 58 58 57 57 56 55 54 47 50 55 54 55 59 57 47 51 62 67 63 54 57 52 56 58 57 59 67 68 70 66 62 56 63 72 72 70 62 66 57 52 46 43
60 59 59 58 58 58 58 58 57 56 55 53 49 57 60 55 54 59 50 49 57 65 67 61 56 57 57 57 59 57 61 67 72 68 68 59 58 61 66 61 57 62 57 53 53 50 47
60 59 59 58 58 58 58 57 56 55 53 50 49 55 60 59 56 44 49 53 60 63 67 67 61 62 61 61 58 59 63 70 74 69 65 62 56 53 59 63 67 62 56 55 53 50 46
60 59 59 59 58 58 58 57 56 54 53 50 52 53 62 61 50 48 50 58 63 63 63 63 62 65 63 61 57 62 64 73 73 70 66 66 55 49 56 60 63 59 57 54 51 49 47
60 60 59 59 58 58 58 57 55 54 54 48 52 52 56 56 50 52 50 55 58 70 67 68 66 64 60 58 58 60 62 70 74 75 71 66 51 55 54 56 58 57 62 59 55 51 49
60 60 59 59 59 59 58 57 56 55 53 50 53 52 53 51 54 52 53 57 60 59 66 65 63 64 59 54 56 59 63 64 69 67 64 66 57 53 53 59 60 59 62 61 58 55 56
60 60 60 59 59 59 58 57 56 55 53 52 52 52 53 51 53 51 50 53 59 62 63 62 61 64 59 55 59 57 61 58 62 63 59 58 53 54 52 59 60 58 61 62 62 60 59
60 60 60 59 59 58 58 57 57 55 52 46 50 53 53 51 52 50 53 57 62 63 70 69 66 61 61 62 64 61 57 59 62 63 57 56 54 52 47 55 58 55 60 61 62 62 62
59 60 60 59 59 58 58 58 57 56 54 49 44 48 50 51 53 55 61 62 61 62 64 68 65 59 64 68 66 61 61 62 67 62 61 54 51 49 49 50 46 60 64 67 65 64 65
59 59 59 59 58 58 58 58 58 57 55 49 45 48 48 47 53 59 61 61 61 59 65 69 66 66 61 63 57 55 55 61 63 61 62 59 54 48 50 47 54 61 64 64 61 62 67
59 59 59 59 58 58 58 58 58 57 55 46 45 47 48 47 52 61 59 59 55 53 60 66 71 66 64 54 54 49 51 54 57 56 57 57 57 56 48 50 49 59 66 67 66 56 66
58 59 59 58 58 58 58 58 58 58 56 49 46 47 48 46 52 54 55 57 59 56 54 57 63 68 66 57 55 51 54 58 54 55 54 53 53 53 51 49 56 62 67 68 55 57 65
58 58 58 58 58 57 58 58 58 58 57 50 47 48 48 45 50 59 62 58 59 56 54 57 59 61 59 56 52 53 52 54 53 55 54 56 55 51 51 49 53 65 66 63 62 58 64
57 58 58 58 57 57 57 57 57 57 57 52 46 50 50 46 53 55 62 67 68 66 58 55 57 58 62 58 54 52 53 52 50 52 56 56 59 56 56 56 61 60 61 61 62 61 62